START_TIME,STEP,MOV.,AL01,t_acc.,AL02,t_acc.,E37,t_acc.,H21,t_acc.
1980-11-15 12:00:22.890 ,0,0,0.,24.0,0.,24.0,0.,24.0,0.,24.0
1980-11-15 12:00:46.890 ,0,1,0.,24.0,0.,24.0,0.,24.0,0.,24.0
1980-11-15 12:01:10.890 ,0,0,0.,24.0,0.,24.0,1.,24.0,0.,24.0
1980-11-15 12:03:10.890 ,0,0,0.,24.0,0.,24.0,0.,24.0,0.,24.0
1980-11-15 12:03:34.890 ,0,0,0.,24.0,0.,24.0,0.,24.0,0.,24.0
1980-11-15 12:03:58.890 ,4,1,0.,24.0,0.,24.0,1.,24.0,0.,24.0
1980-11-15 12:04:22.890 ,4,0,0.,24.0,0.,24.0,0.,24.0,0.,24.0
1980-11-15 12:03:10.890 ,0,0,0.,24.0,0.,24.0,0.,24.0,0.,24.0
1980-11-15 12:03:34.890 ,0,0,0.,24.0,0.,24.0,0.,24.0,0.,24.0
1980-11-15 12:03:58.890 ,4,1,0.,24.0,0.,24.0,1.,24.0,0.,24.0
1980-11-15 12:04:22.890 ,4,0,0.,24.0,0.,24.0,0.,24.0,0.,24.0
1980-11-15 12:03:34.890 ,0,0,0.,24.0,0.,24.0,0.,24.0,0.,24.0
1980-11-15 12:03:58.890 ,4,1,0.,24.0,0.,24.0,1.,24.0,0.,24.0
1980-11-15 12:04:22.890 ,4,0,0.,24.0,0.,24.0,0.,24.0,0.,24.0
1980-11-15 12:13:34.890 ,0,1,0.,24.0,0.,24.0,0.,24.0,0.,24.0
1980-11-15 12:13:58.890 ,0,0,0.,24.0,0.,24.0,2.,24.0,0.,24.0
1980-11-15 12:14:22.890 ,1,1,1.,24.0,0.,24.0,1.,24.0,0.,24.0
1980-11-15 12:14:46.890 ,1,0,0.,24.0,0.,24.0,1.,24.0,0.,24.0
1980-11-15 12:15:10.890 ,2,1,0.,24.0,0.,24.0,0.,24.0,0.,24.0
1980-11-15 12:15:34.890 ,2,0,0.,24.0,0.,24.0,0.,24.0,0.,24.0
1980-11-15 12:15:58.890 ,3,1,0.,24.0,0.,24.0,0.,24.0,0.,24.0
1980-11-15 12:16:22.890 ,3,0,0.,24.0,0.,24.0,2.,24.0,0.,24.0
1980-11-15 12:16:46.890 ,4,1,0.,24.0,0.,24.0,0.,24.0,0.,24.0
1980-11-15 12:17:10.890 ,4,0,0.,24.0,0.,24.0,0.,24.0,0.,24.0
1980-11-15 12:17:34.890 ,5,1,0.,24.0,0.,24.0,0.,24.0,0.,24.0
1980-11-15 12:17:58.890 ,5,0,0.,24.0,0.,24.0,0.,24.0,0.,24.0
1980-11-15 12:18:22.890 ,6,1,0.,24.0,0.,24.0,0.,24.0,0.,24.0
1980-11-15 12:18:46.890 ,6,0,0.,24.0,0.,24.0,1.,24.0,0.,24.0
1980-11-15 12:19:10.890 ,7,1,4.,24.0,0.,24.0,0.,24.0,0.,24.0
1980-11-15 12:19:34.890 ,7,0,9.,24.0,0.,24.0,0.,24.0,0.,24.0
1980-11-15 12:19:58.890 ,7,1,10.,24.0,0.,24.0,0.,24.0,0.,24.0
1980-11-15 12:20:22.890 ,7,0,16.,24.0,0.,24.0,0.,24.0,0.,24.0
1980-11-15 12:20:46.890 ,6,1,5.,24.0,0.,24.0,0.,24.0,0.,24.0
1980-11-15 12:21:10.890 ,6,0,0.,24.0,0.,24.0,1.,24.0,0.,24.0
1980-11-15 12:21:34.890 ,5,1,0.,24.0,0.,24.0,0.,24.0,0.,24.0
1980-11-15 12:21:58.890 ,5,0,0.,24.0,0.,24.0,1.,24.0,0.,24.0
1980-11-15 12:22:22.890 ,4,1,0.,24.0,0.,24.0,0.,24.0,0.,24.0
1980-11-15 12:22:46.890 ,4,0,0.,24.0,0.,24.0,1.,24.0,0.,24.0
1980-11-15 12:23:10.890 ,3,1,0.,24.0,0.,24.0,1.,24.0,0.,24.0
1980-11-15 12:23:34.890 ,3,0,0.,24.0,0.,24.0,1.,24.0,0.,24.0
1980-11-15 12:23:58.890 ,2,1,0.,24.0,0.,24.0,1.,24.0,0.,24.0
1980-11-15 12:24:22.890 ,2,0,0.,24.0,0.,24.0,0.,24.0,0.,24.0
1980-11-15 12:24:46.890 ,1,1,0.,24.0,0.,24.0,0.,24.0,0.,24.0
1980-11-15 12:25:10.890 ,1,0,0.,24.0,0.,24.0,1.,24.0,0.,24.0
1980-11-15 12:25:34.890 ,0,1,0.,24.0,0.,24.0,1.,24.0,0.,24.0
1980-11-15 12:25:58.890 ,0,0,0.,24.0,0.,24.0,1.,24.0,0.,24.0
1980-11-15 12:26:22.890 ,0,1,0.,24.0,0.,24.0,0.,24.0,0.,24.0
1980-11-15 12:26:46.890 ,0,0,0.,24.0,0.,24.0,0.,24.0,0.,24.0
1980-11-15 12:27:10.890 ,1,1,0.,24.0,0.,24.0,0.,24.0,0.,24.0
1980-11-15 12:27:34.890 ,1,0,0.,24.0,0.,24.0,0.,24.0,0.,24.0
1980-11-15 12:27:58.890 ,2,1,0.,24.0,0.,24.0,0.,24.0,0.,24.0
1980-11-15 12:28:22.890 ,2,0,0.,24.0,0.,24.0,0.,24.0,0.,24.0
1980-11-15 12:28:46.890 ,3,1,0.,24.0,0.,24.0,0.,24.0,0.,24.0
1980-11-15 12:29:10.890 ,3,0,0.,24.0,0.,24.0,0.,24.0,0.,24.0
1980-11-15 12:29:34.890 ,4,1,0.,24.0,0.,24.0,0.,24.0,0.,24.0
1980-11-15 12:29:58.890 ,4,0,0.,24.0,0.,24.0,1.,24.0,0.,24.0
1980-11-15 12:30:22.890 ,5,1,0.,24.0,0.,24.0,0.,24.0,0.,24.0
1980-11-15 12:30:46.890 ,5,0,0.,24.0,0.,24.0,0.,24.0,0.,24.0
1980-11-15 12:31:10.890 ,6,1,0.,24.0,0.,24.0,1.,24.0,0.,24.0
1980-11-15 12:31:34.890 ,6,0,0.,24.0,0.,24.0,1.,24.0,0.,24.0
1980-11-15 12:31:58.890 ,7,1,1.,24.0,0.,24.0,0.,24.0,0.,24.0
1980-11-15 12:32:22.890 ,7,0,11.,24.0,0.,24.0,0.,24.0,0.,24.0
1980-11-15 12:32:46.890 ,7,1,7.,24.0,0.,24.0,3.,24.0,0.,24.0
1980-11-15 12:33:10.890 ,7,0,12.,24.0,0.,24.0,0.,24.0,0.,24.0
1980-11-15 12:33:34.890 ,6,1,5.,24.0,0.,24.0,1.,24.0,0.,24.0
1980-11-15 12:33:58.890 ,6,0,0.,24.0,0.,24.0,0.,24.0,0.,24.0
1980-11-15 12:34:22.890 ,5,1,0.,24.0,0.,24.0,2.,24.0,0.,24.0
1980-11-15 12:34:46.890 ,5,0,0.,24.0,0.,24.0,1.,24.0,0.,24.0
1980-11-15 12:35:10.890 ,4,1,0.,24.0,0.,24.0,0.,24.0,0.,24.0
1980-11-15 12:35:34.890 ,4,0,0.,24.0,0.,24.0,0.,24.0,0.,24.0
1980-11-15 12:35:58.890 ,3,1,0.,24.0,0.,24.0,0.,24.0,0.,24.0
1980-11-15 12:36:22.890 ,3,0,0.,24.0,0.,24.0,0.,24.0,0.,24.0
1980-11-15 12:36:46.890 ,2,1,0.,24.0,0.,24.0,0.,24.0,0.,24.0
1980-11-15 12:37:10.890 ,2,0,0.,24.0,0.,24.0,0.,24.0,0.,24.0
1980-11-15 12:37:34.890 ,1,1,0.,24.0,0.,24.0,0.,24.0,0.,24.0
1980-11-15 12:37:58.890 ,1,0,0.,24.0,0.,24.0,0.,24.0,0.,24.0
1980-11-15 12:38:22.890 ,0,1,0.,24.0,0.,24.0,1.,24.0,0.,24.0
1980-11-15 12:38:46.890 ,0,0,0.,24.0,0.,24.0,2.,24.0,0.,24.0
1980-11-15 12:39:10.890 ,0,1,0.,24.0,0.,24.0,0.,24.0,0.,24.0
1980-11-15 12:39:34.890 ,0,0,0.,24.0,0.,24.0,2.,24.0,0.,24.0
1980-11-15 12:39:58.890 ,1,1,0.,24.0,0.,24.0,0.,24.0,0.,24.0
1980-11-15 12:40:22.890 ,1,0,0.,24.0,0.,24.0,0.,24.0,0.,24.0
1980-11-15 12:40:46.890 ,2,1,0.,24.0,0.,24.0,0.,24.0,0.,24.0
1980-11-15 12:41:10.890 ,2,0,1.,24.0,0.,24.0,0.,24.0,0.,24.0
1980-11-15 12:41:34.890 ,3,1,0.,24.0,0.,24.0,0.,24.0,0.,24.0
1980-11-15 12:41:58.890 ,3,0,0.,24.0,0.,24.0,0.,24.0,0.,24.0
1980-11-15 12:42:22.890 ,4,1,0.,24.0,0.,24.0,0.,24.0,0.,24.0
1980-11-15 12:42:46.890 ,4,0,0.,24.0,0.,24.0,0.,24.0,0.,24.0
1980-11-15 12:43:10.890 ,5,1,0.,24.0,0.,24.0,0.,24.0,0.,24.0
1980-11-15 12:43:34.890 ,5,0,0.,24.0,0.,24.0,1.,24.0,0.,24.0
1980-11-15 12:43:58.890 ,6,1,0.,24.0,0.,24.0,0.,24.0,0.,24.0
1980-11-15 12:44:22.890 ,6,0,0.,24.0,0.,24.0,0.,24.0,0.,24.0
1980-11-15 12:44:46.890 ,7,1,2.,24.0,0.,24.0,0.,24.0,0.,24.0
1980-11-15 12:45:10.890 ,7,0,16.,24.0,0.,24.0,2.,24.0,0.,24.0
1980-11-15 12:45:34.890 ,7,1,7.,24.0,0.,24.0,0.,24.0,0.,24.0
1980-11-15 12:45:58.890 ,7,0,14.,24.0,0.,24.0,0.,24.0,0.,24.0
1980-11-15 12:46:22.890 ,6,1,4.,24.0,0.,24.0,0.,24.0,0.,24.0
1980-11-15 12:46:46.890 ,6,0,0.,24.0,0.,24.0,1.,24.0,0.,24.0
1980-11-15 12:47:10.890 ,5,1,0.,24.0,0.,24.0,1.,24.0,0.,24.0
1980-11-15 12:47:34.890 ,5,0,0.,24.0,0.,24.0,0.,24.0,0.,24.0
1980-11-15 12:47:58.890 ,4,1,0.,24.0,0.,24.0,0.,24.0,0.,24.0
1980-11-15 12:48:22.890 ,4,0,0.,24.0,1.,24.0,0.,24.0,0.,24.0
1980-11-15 12:48:46.890 ,3,1,0.,24.0,0.,24.0,1.,24.0,0.,24.0
1980-11-15 12:49:10.890 ,3,0,0.,24.0,0.,24.0,0.,24.0,0.,24.0
1980-11-15 12:49:34.890 ,2,1,0.,24.0,0.,24.0,1.,24.0,0.,24.0
1980-11-15 12:49:58.890 ,2,0,0.,24.0,0.,24.0,1.,24.0,0.,24.0
1980-11-15 12:50:22.890 ,1,1,0.,24.0,0.,24.0,0.,24.0,0.,24.0
1980-11-15 12:50:46.890 ,1,0,0.,24.0,0.,24.0,0.,24.0,0.,24.0
1980-11-15 12:51:10.890 ,0,1,0.,24.0,0.,24.0,0.,24.0,0.,24.0
1980-11-15 12:51:34.890 ,0,0,0.,24.0,0.,24.0,0.,24.0,0.,24.0
1980-11-15 12:51:58.890 ,0,1,0.,24.0,0.,24.0,1.,24.0,0.,24.0
1980-11-15 12:52:22.890 ,0,0,0.,24.0,0.,24.0,0.,24.0,0.,24.0
1980-11-15 12:52:46.890 ,1,1,0.,24.0,0.,24.0,1.,24.0,0.,24.0
1980-11-15 12:53:10.890 ,1,0,0.,24.0,0.,24.0,0.,24.0,0.,24.0
1980-11-15 12:53:34.890 ,2,1,0.,24.0,0.,24.0,0.,24.0,0.,24.0
1980-11-15 12:53:58.890 ,2,0,0.,24.0,0.,24.0,0.,24.0,0.,24.0
1980-11-15 12:54:22.890 ,3,1,0.,24.0,0.,24.0,0.,24.0,0.,24.0
1980-11-15 12:54:46.890 ,3,0,0.,24.0,0.,24.0,1.,24.0,0.,24.0
1980-11-15 12:55:10.890 ,4,1,0.,24.0,0.,24.0,0.,24.0,0.,24.0
1980-11-15 12:55:34.890 ,4,0,0.,24.0,0.,24.0,0.,24.0,0.,24.0
1980-11-15 12:55:58.890 ,5,1,0.,24.0,0.,24.0,0.,24.0,0.,24.0
1980-11-15 12:56:22.890 ,5,0,0.,24.0,0.,24.0,0.,24.0,0.,24.0
1980-11-15 12:56:46.890 ,6,1,0.,24.0,0.,24.0,0.,24.0,0.,24.0
1980-11-15 12:57:10.890 ,6,0,0.,24.0,0.,24.0,0.,24.0,0.,24.0
1980-11-15 12:57:34.890 ,7,1,2.,24.0,0.,24.0,2.,24.0,0.,24.0
1980-11-15 12:57:58.890 ,7,0,14.,24.0,0.,24.0,1.,24.0,0.,24.0
1980-11-15 12:58:22.890 ,7,1,13.,24.0,0.,24.0,0.,24.0,0.,24.0
1980-11-15 12:58:46.890 ,7,0,12.,24.0,0.,24.0,1.,24.0,0.,24.0
1980-11-15 12:59:10.890 ,6,1,2.,24.0,0.,24.0,1.,24.0,0.,24.0
1980-11-15 12:59:34.890 ,6,0,0.,24.0,0.,24.0,0.,24.0,0.,24.0
1980-11-15 12:59:58.890 ,5,1,0.,24.0,0.,24.0,0.,24.0,0.,24.0
1980-11-15 13:00:22.890 ,5,0,0.,24.0,0.,24.0,0.,24.0,0.,24.0
1980-11-15 13:00:46.890 ,4,1,0.,24.0,0.,24.0,0.,24.0,0.,24.0
1980-11-15 13:01:10.890 ,4,0,0.,24.0,0.,24.0,0.,24.0,0.,24.0
1980-11-15 13:01:34.890 ,3,1,0.,24.0,0.,24.0,1.,24.0,0.,24.0
1980-11-15 13:01:58.890 ,3,0,0.,24.0,0.,24.0,0.,24.0,0.,24.0
1980-11-15 13:02:22.890 ,2,1,0.,24.0,0.,24.0,0.,24.0,0.,24.0
1980-11-15 13:02:46.890 ,2,0,0.,24.0,0.,24.0,1.,24.0,0.,24.0
1980-11-15 13:03:10.890 ,1,1,0.,24.0,0.,24.0,2.,24.0,0.,24.0
1980-11-15 13:03:34.890 ,1,0,0.,24.0,0.,24.0,0.,24.0,0.,24.0
1980-11-15 13:03:58.890 ,0,1,0.,24.0,0.,24.0,0.,24.0,0.,24.0
1980-11-15 13:04:22.890 ,0,0,0.,24.0,0.,24.0,0.,24.0,0.,24.0
1980-11-15 13:04:46.890 ,0,1,0.,24.0,0.,24.0,1.,24.0,0.,24.0
1980-11-15 13:05:10.890 ,0,0,0.,24.0,0.,24.0,0.,24.0,0.,24.0
1980-11-15 13:05:34.890 ,1,1,0.,24.0,0.,24.0,1.,24.0,0.,24.0
1980-11-15 13:05:58.890 ,1,0,0.,24.0,0.,24.0,0.,24.0,0.,24.0
1980-11-15 13:06:22.890 ,2,1,0.,24.0,0.,24.0,0.,24.0,0.,24.0
1980-11-15 13:06:46.890 ,2,0,0.,24.0,0.,24.0,0.,24.0,0.,24.0
1980-11-15 13:07:10.890 ,3,1,0.,24.0,0.,24.0,1.,24.0,0.,24.0
1980-11-15 13:07:34.890 ,3,0,0.,24.0,0.,24.0,2.,24.0,0.,24.0
1980-11-15 13:07:58.890 ,4,1,0.,24.0,0.,24.0,0.,24.0,0.,24.0
1980-11-15 13:08:22.890 ,4,0,0.,24.0,0.,24.0,0.,24.0,0.,24.0
1980-11-15 13:08:46.890 ,5,1,0.,24.0,0.,24.0,2.,24.0,0.,24.0
1980-11-15 13:09:10.890 ,5,0,0.,24.0,0.,24.0,1.,24.0,0.,24.0
1980-11-15 13:09:34.890 ,6,1,0.,24.0,0.,24.0,0.,24.0,0.,24.0
1980-11-15 13:09:58.890 ,6,0,0.,24.0,0.,24.0,0.,24.0,0.,24.0
1980-11-15 13:10:22.890 ,7,1,3.,24.0,1.,24.0,0.,24.0,0.,24.0
1980-11-15 13:10:46.890 ,7,0,8.,24.0,0.,24.0,1.,24.0,0.,24.0
1980-11-15 13:11:10.890 ,7,1,9.,24.0,0.,24.0,1.,24.0,0.,24.0
1980-11-15 13:11:34.890 ,7,0,7.,24.0,0.,24.0,0.,24.0,0.,24.0
1980-11-15 13:11:58.890 ,6,1,8.,24.0,0.,24.0,0.,24.0,0.,24.0
1980-11-15 13:12:22.890 ,6,0,0.,24.0,0.,24.0,1.,24.0,0.,24.0
1980-11-15 13:12:46.890 ,5,1,0.,24.0,0.,24.0,1.,24.0,0.,24.0
1980-11-15 13:13:10.890 ,5,0,0.,24.0,0.,24.0,0.,24.0,0.,24.0
1980-11-15 13:13:34.890 ,4,1,0.,24.0,0.,24.0,0.,24.0,0.,24.0
1980-11-15 13:13:58.890 ,4,0,0.,24.0,0.,24.0,0.,24.0,0.,24.0
1980-11-15 13:14:22.890 ,3,1,0.,24.0,0.,24.0,1.,24.0,0.,24.0
1980-11-15 13:14:46.890 ,3,0,0.,24.0,0.,24.0,1.,24.0,0.,24.0
1980-11-15 13:15:10.890 ,2,1,0.,24.0,0.,24.0,1.,24.0,0.,24.0
1980-11-15 13:15:34.890 ,2,0,0.,24.0,0.,24.0,0.,24.0,0.,24.0
1980-11-15 13:15:58.890 ,1,1,0.,24.0,0.,24.0,0.,24.0,0.,24.0
1980-11-15 13:16:22.890 ,1,0,0.,24.0,0.,24.0,0.,24.0,0.,24.0
1980-11-15 13:16:46.890 ,0,1,0.,24.0,0.,24.0,0.,24.0,0.,24.0
1980-11-15 13:17:10.890 ,0,0,0.,24.0,0.,24.0,1.,24.0,0.,24.0
1980-11-15 13:17:34.890 ,0,1,0.,24.0,0.,24.0,0.,24.0,0.,24.0
1980-11-15 13:17:58.890 ,0,0,0.,24.0,0.,24.0,0.,24.0,0.,24.0
1980-11-15 13:18:22.890 ,1,1,0.,24.0,0.,24.0,0.,24.0,0.,24.0
1980-11-15 13:18:46.890 ,1,0,0.,24.0,0.,24.0,1.,24.0,0.,24.0
1980-11-15 13:19:10.890 ,2,1,0.,24.0,0.,24.0,0.,24.0,0.,24.0
1980-11-15 13:19:34.890 ,2,0,0.,24.0,0.,24.0,0.,24.0,0.,24.0
1980-11-15 13:19:58.890 ,3,1,0.,24.0,0.,24.0,0.,24.0,0.,24.0
1980-11-15 13:20:22.890 ,3,0,0.,24.0,0.,24.0,0.,24.0,0.,24.0
1980-11-15 13:20:46.890 ,4,1,0.,24.0,0.,24.0,0.,24.0,0.,24.0
1980-11-15 13:21:10.890 ,4,0,0.,24.0,0.,24.0,0.,24.0,0.,24.0
1980-11-15 13:21:34.890 ,5,1,0.,24.0,0.,24.0,0.,24.0,0.,24.0
1980-11-15 13:21:58.890 ,5,0,0.,24.0,0.,24.0,0.,24.0,0.,24.0
1980-11-15 13:22:22.890 ,6,1,0.,24.0,0.,24.0,0.,24.0,0.,24.0
1980-11-15 13:22:46.890 ,6,0,0.,24.0,0.,24.0,0.,24.0,0.,24.0
1980-11-15 13:23:10.890 ,7,1,4.,24.0,0.,24.0,0.,24.0,0.,24.0
1980-11-15 13:23:34.890 ,7,0,10.,24.0,0.,24.0,1.,24.0,0.,24.0
1980-11-15 13:23:58.890 ,7,1,7.,24.0,0.,24.0,1.,24.0,0.,24.0
1980-11-15 13:24:22.890 ,7,0,14.,24.0,0.,24.0,1.,24.0,0.,24.0
1980-11-15 13:24:46.890 ,6,1,7.,24.0,0.,24.0,0.,24.0,0.,24.0
1980-11-15 13:25:10.890 ,6,0,0.,24.0,0.,24.0,0.,24.0,0.,24.0
1980-11-15 13:25:34.890 ,5,1,0.,24.0,0.,24.0,0.,24.0,0.,24.0
1980-11-15 13:25:58.890 ,5,0,0.,24.0,0.,24.0,1.,24.0,0.,24.0
1980-11-15 13:26:22.890 ,4,1,0.,24.0,0.,24.0,0.,24.0,0.,24.0
1980-11-15 13:26:46.890 ,4,0,0.,24.0,0.,24.0,0.,24.0,0.,24.0
1980-11-15 13:27:10.890 ,3,1,0.,24.0,0.,24.0,0.,24.0,0.,24.0
1980-11-15 13:27:34.890 ,3,0,0.,24.0,0.,24.0,0.,24.0,0.,24.0
1980-11-15 13:27:58.890 ,2,1,0.,24.0,0.,24.0,0.,24.0,0.,24.0
1980-11-15 13:28:22.890 ,2,0,0.,24.0,0.,24.0,0.,24.0,0.,24.0
1980-11-15 13:28:46.890 ,1,1,0.,24.0,0.,24.0,0.,24.0,0.,24.0
1980-11-15 13:29:10.890 ,1,0,0.,24.0,0.,24.0,1.,24.0,0.,24.0
1980-11-15 13:29:34.890 ,0,1,0.,24.0,0.,24.0,2.,24.0,0.,24.0
1980-11-15 13:29:58.890 ,0,0,0.,24.0,0.,24.0,0.,24.0,0.,24.0
1980-11-15 13:30:22.890 ,0,1,0.,24.0,0.,24.0,0.,24.0,0.,24.0
1980-11-15 13:30:46.890 ,0,0,0.,24.0,0.,24.0,0.,24.0,0.,24.0
1980-11-15 13:31:10.890 ,1,1,0.,24.0,0.,24.0,0.,24.0,0.,24.0
1980-11-15 13:31:34.890 ,1,0,0.,24.0,0.,24.0,0.,24.0,0.,24.0
1980-11-15 13:31:58.890 ,2,1,0.,24.0,0.,24.0,0.,24.0,0.,24.0
1980-11-15 13:32:22.890 ,2,0,0.,24.0,0.,24.0,2.,24.0,0.,24.0
1980-11-15 13:32:46.890 ,3,1,0.,24.0,0.,24.0,0.,24.0,0.,24.0
1980-11-15 13:33:10.890 ,3,0,0.,24.0,0.,24.0,0.,24.0,0.,24.0
1980-11-15 13:33:34.890 ,4,1,0.,24.0,0.,24.0,0.,24.0,0.,24.0
1980-11-15 13:33:58.890 ,4,0,0.,24.0,0.,24.0,1.,24.0,0.,24.0
1980-11-15 13:34:22.890 ,5,1,0.,24.0,0.,24.0,0.,24.0,0.,24.0
1980-11-15 13:34:46.890 ,5,0,0.,24.0,0.,24.0,0.,24.0,0.,24.0
1980-11-15 13:35:10.890 ,6,1,0.,24.0,0.,24.0,0.,24.0,0.,24.0
1980-11-15 13:35:34.890 ,6,0,0.,24.0,0.,24.0,1.,24.0,0.,24.0
1980-11-15 13:35:58.890 ,7,1,1.,24.0,0.,24.0,0.,24.0,0.,24.0
1980-11-15 13:36:22.890 ,7,0,5.,24.0,0.,24.0,0.,24.0,0.,24.0
1980-11-15 13:36:46.890 ,7,1,9.,24.0,0.,24.0,0.,24.0,0.,24.0
1980-11-15 13:37:10.890 ,7,0,7.,24.0,0.,24.0,1.,24.0,0.,24.0
1980-11-15 13:37:34.890 ,6,1,10.,24.0,0.,24.0,0.,24.0,0.,24.0
1980-11-15 13:37:58.890 ,6,0,0.,24.0,0.,24.0,0.,24.0,0.,24.0
1980-11-15 13:38:22.890 ,5,1,0.,24.0,0.,24.0,1.,24.0,0.,24.0
1980-11-15 13:38:46.890 ,5,0,0.,24.0,0.,24.0,2.,24.0,0.,24.0
1980-11-15 13:39:10.890 ,4,1,0.,24.0,0.,24.0,0.,24.0,0.,24.0
1980-11-15 13:39:34.890 ,4,0,0.,24.0,0.,24.0,0.,24.0,0.,24.0
1980-11-15 13:39:58.890 ,3,1,0.,24.0,0.,24.0,0.,24.0,0.,24.0
1980-11-15 13:40:22.890 ,3,0,0.,24.0,0.,24.0,0.,24.0,0.,24.0
1980-11-15 13:40:46.890 ,2,1,0.,24.0,0.,24.0,0.,24.0,0.,24.0
1980-11-15 13:41:10.890 ,2,0,0.,24.0,0.,24.0,0.,24.0,0.,24.0
1980-11-15 13:41:34.890 ,1,1,1.,24.0,0.,24.0,0.,24.0,0.,24.0
1980-11-15 13:41:58.890 ,1,0,0.,24.0,0.,24.0,0.,24.0,0.,24.0
1980-11-15 13:42:22.890 ,0,1,1.,24.0,0.,24.0,0.,24.0,0.,24.0
1980-11-15 13:42:46.890 ,0,0,0.,24.0,0.,24.0,2.,24.0,0.,24.0
1980-11-15 13:43:10.890 ,0,1,0.,24.0,0.,24.0,0.,24.0,0.,24.0
1980-11-15 13:43:34.890 ,0,0,0.,24.0,0.,24.0,1.,24.0,0.,24.0
1980-11-15 13:43:58.890 ,1,1,0.,24.0,0.,24.0,0.,24.0,0.,24.0
1980-11-15 13:44:22.890 ,1,0,0.,24.0,0.,24.0,1.,24.0,0.,24.0
1980-11-15 13:44:46.890 ,2,1,0.,24.0,0.,24.0,1.,24.0,0.,24.0
1980-11-15 13:45:10.890 ,2,0,0.,24.0,0.,24.0,0.,24.0,0.,24.0
1980-11-15 13:45:34.890 ,3,1,0.,24.0,0.,24.0,0.,24.0,0.,24.0
1980-11-15 13:45:58.890 ,3,0,0.,24.0,0.,24.0,0.,24.0,0.,24.0
1980-11-15 13:46:22.890 ,4,1,0.,24.0,0.,24.0,1.,24.0,0.,24.0
1980-11-15 13:46:46.890 ,4,0,0.,24.0,0.,24.0,1.,24.0,0.,24.0
1980-11-15 13:47:10.890 ,5,1,0.,24.0,0.,24.0,0.,24.0,0.,24.0
1980-11-15 13:47:34.890 ,5,0,0.,24.0,0.,24.0,2.,24.0,0.,24.0
1980-11-15 13:47:58.890 ,6,1,0.,24.0,0.,24.0,0.,24.0,0.,24.0
1980-11-15 13:48:22.890 ,6,0,0.,24.0,0.,24.0,0.,24.0,0.,24.0
1980-11-15 13:48:46.890 ,7,1,1.,24.0,0.,24.0,0.,24.0,0.,24.0
1980-11-15 13:49:10.890 ,7,0,15.,24.0,0.,24.0,0.,24.0,0.,24.0
1980-11-15 13:49:34.890 ,7,1,7.,24.0,0.,24.0,1.,24.0,0.,24.0
1980-11-15 13:49:58.890 ,7,0,10.,24.0,0.,24.0,1.,24.0,0.,24.0
1980-11-15 13:50:22.890 ,6,1,6.,24.0,0.,24.0,1.,24.0,0.,24.0
1980-11-15 13:50:46.890 ,6,0,0.,24.0,0.,24.0,0.,24.0,0.,24.0
1980-11-15 13:51:10.890 ,5,1,0.,24.0,0.,24.0,1.,24.0,0.,24.0
1980-11-15 13:51:34.890 ,5,0,0.,24.0,0.,24.0,0.,24.0,0.,24.0
1980-11-15 13:51:58.890 ,4,1,1.,24.0,0.,24.0,0.,24.0,0.,24.0
1980-11-15 13:52:22.890 ,4,0,0.,24.0,0.,24.0,0.,24.0,0.,24.0
1980-11-15 13:52:46.890 ,3,1,0.,24.0,0.,24.0,0.,24.0,0.,24.0
1980-11-15 13:53:10.890 ,3,0,0.,24.0,0.,24.0,1.,24.0,0.,24.0
1980-11-15 13:53:34.890 ,2,1,0.,24.0,0.,24.0,2.,24.0,0.,24.0
1980-11-15 13:53:58.890 ,2,0,0.,24.0,0.,24.0,0.,24.0,0.,24.0
1980-11-15 13:54:22.890 ,1,1,0.,24.0,0.,24.0,1.,24.0,0.,24.0
1980-11-15 13:54:46.890 ,1,0,0.,24.0,0.,24.0,1.,24.0,0.,24.0
1980-11-15 13:55:10.890 ,0,1,0.,24.0,0.,24.0,1.,24.0,0.,24.0
1980-11-15 13:55:34.890 ,0,0,0.,24.0,0.,24.0,0.,24.0,0.,24.0
1980-11-15 13:55:58.890 ,0,1,0.,24.0,0.,24.0,0.,24.0,0.,24.0
1980-11-15 13:56:22.890 ,0,0,0.,24.0,0.,24.0,1.,24.0,0.,24.0
1980-11-15 13:56:46.890 ,1,1,0.,24.0,0.,24.0,1.,24.0,0.,24.0
1980-11-15 13:57:10.890 ,1,0,0.,24.0,0.,24.0,0.,24.0,0.,24.0
1980-11-15 13:57:34.890 ,2,1,0.,24.0,0.,24.0,0.,24.0,0.,24.0
1980-11-15 13:57:58.890 ,2,0,0.,24.0,0.,24.0,3.,24.0,0.,24.0
1980-11-15 13:58:22.890 ,3,1,0.,24.0,0.,24.0,1.,24.0,0.,24.0
1980-11-15 13:58:46.890 ,3,0,0.,24.0,0.,24.0,1.,24.0,0.,24.0
1980-11-15 13:59:10.890 ,4,1,0.,24.0,0.,24.0,0.,24.0,0.,24.0
1980-11-15 13:59:34.890 ,4,0,0.,24.0,0.,24.0,0.,24.0,0.,24.0
1980-11-15 13:59:58.890 ,5,1,0.,24.0,0.,24.0,0.,24.0,0.,24.0
1980-11-15 14:00:22.890 ,5,0,0.,24.0,0.,24.0,0.,24.0,0.,24.0
1980-11-15 14:00:46.890 ,6,1,0.,24.0,0.,24.0,1.,24.0,0.,24.0
1980-11-15 14:01:10.890 ,6,0,0.,24.0,0.,24.0,0.,24.0,0.,24.0
1980-11-15 14:01:34.890 ,7,1,3.,24.0,0.,24.0,0.,24.0,0.,24.0
1980-11-15 14:01:58.890 ,7,0,10.,24.0,0.,24.0,0.,24.0,0.,24.0
1980-11-15 14:02:22.890 ,7,1,9.,24.0,0.,24.0,0.,24.0,0.,24.0
1980-11-15 14:02:46.890 ,7,0,9.,24.0,0.,24.0,0.,24.0,0.,24.0
1980-11-15 14:03:10.890 ,6,1,6.,24.0,0.,24.0,1.,24.0,0.,24.0
1980-11-15 14:03:34.890 ,6,0,0.,24.0,0.,24.0,0.,24.0,0.,24.0
1980-11-15 14:03:58.890 ,5,1,0.,24.0,0.,24.0,0.,24.0,0.,24.0
1980-11-15 14:04:22.890 ,5,0,0.,24.0,0.,24.0,1.,24.0,0.,24.0
1980-11-15 14:04:46.890 ,4,1,0.,24.0,0.,24.0,0.,24.0,0.,24.0
1980-11-15 14:05:10.890 ,4,0,0.,24.0,0.,24.0,0.,24.0,0.,24.0
1980-11-15 14:05:34.890 ,3,1,0.,24.0,0.,24.0,0.,24.0,0.,24.0
1980-11-15 14:05:58.890 ,3,0,0.,24.0,0.,24.0,1.,24.0,0.,24.0
1980-11-15 14:06:22.890 ,2,1,0.,24.0,0.,24.0,0.,24.0,0.,24.0
1980-11-15 14:06:46.890 ,2,0,0.,24.0,0.,24.0,1.,24.0,0.,24.0
1980-11-15 14:07:10.890 ,1,1,0.,24.0,0.,24.0,0.,24.0,0.,24.0
1980-11-15 14:07:34.890 ,1,0,0.,24.0,0.,24.0,1.,24.0,0.,24.0
1980-11-15 14:07:58.890 ,0,1,0.,24.0,0.,24.0,0.,24.0,0.,24.0
1980-11-15 14:08:22.890 ,0,0,0.,24.0,0.,24.0,1.,24.0,0.,24.0
1980-11-15 14:08:46.890 ,0,1,0.,24.0,0.,24.0,1.,24.0,0.,24.0
1980-11-15 14:09:10.890 ,0,0,0.,24.0,0.,24.0,0.,24.0,0.,24.0
1980-11-15 14:09:34.890 ,1,1,0.,24.0,0.,24.0,0.,24.0,0.,24.0
1980-11-15 14:09:58.890 ,1,0,0.,24.0,0.,24.0,0.,24.0,0.,24.0
1980-11-15 14:10:22.890 ,2,1,0.,24.0,0.,24.0,1.,24.0,0.,24.0
1980-11-15 14:10:46.890 ,2,0,0.,24.0,0.,24.0,1.,24.0,0.,24.0
1980-11-15 14:11:10.890 ,3,1,0.,24.0,0.,24.0,0.,24.0,0.,24.0
1980-11-15 14:11:34.890 ,3,0,0.,24.0,0.,24.0,0.,24.0,0.,24.0
1980-11-15 14:11:58.890 ,4,1,0.,24.0,0.,24.0,0.,24.0,0.,24.0
1980-11-15 14:12:22.890 ,4,0,0.,24.0,0.,24.0,0.,24.0,0.,24.0
1980-11-15 14:12:46.890 ,5,1,0.,24.0,0.,24.0,0.,24.0,0.,24.0
1980-11-15 14:13:10.890 ,5,0,0.,24.0,0.,24.0,0.,24.0,0.,24.0
1980-11-15 14:13:34.890 ,6,1,0.,24.0,0.,24.0,0.,24.0,0.,24.0
1980-11-15 14:13:58.890 ,6,0,0.,24.0,0.,24.0,0.,24.0,0.,24.0
1980-11-15 14:14:22.890 ,7,1,1.,24.0,0.,24.0,0.,24.0,0.,24.0
1980-11-15 14:14:46.890 ,7,0,11.,24.0,0.,24.0,1.,24.0,0.,24.0
1980-11-15 14:15:10.890 ,7,1,9.,24.0,0.,24.0,0.,24.0,0.,24.0
1980-11-15 14:15:34.890 ,7,0,11.,24.0,0.,24.0,1.,24.0,0.,24.0
1980-11-15 14:15:58.890 ,6,1,6.,24.0,0.,24.0,0.,24.0,0.,24.0
1980-11-15 14:16:22.890 ,6,0,0.,24.0,0.,24.0,0.,24.0,0.,24.0
1980-11-15 14:16:46.890 ,5,1,0.,24.0,0.,24.0,0.,24.0,0.,24.0
1980-11-15 14:17:10.890 ,5,0,0.,24.0,0.,24.0,0.,24.0,0.,24.0
1980-11-15 14:17:34.890 ,4,1,0.,24.0,0.,24.0,0.,24.0,0.,24.0
1980-11-15 14:17:58.890 ,4,0,0.,24.0,0.,24.0,0.,24.0,0.,24.0
1980-11-15 14:18:22.890 ,3,1,0.,24.0,0.,24.0,0.,24.0,0.,24.0
1980-11-15 14:18:46.890 ,3,0,0.,24.0,0.,24.0,0.,24.0,0.,24.0
1980-11-15 14:19:10.890 ,2,1,0.,24.0,0.,24.0,0.,24.0,0.,24.0
1980-11-15 14:19:34.890 ,2,0,0.,24.0,0.,24.0,1.,24.0,0.,24.0
1980-11-15 14:19:58.890 ,1,1,0.,24.0,0.,24.0,1.,24.0,0.,24.0
1980-11-15 14:20:22.890 ,1,0,0.,24.0,0.,24.0,0.,24.0,0.,24.0
1980-11-15 14:20:46.890 ,0,1,0.,24.0,0.,24.0,0.,24.0,0.,24.0
1980-11-15 14:21:10.890 ,0,0,0.,24.0,1.,24.0,0.,24.0,0.,24.0
1980-11-15 14:21:34.890 ,0,1,0.,24.0,0.,24.0,1.,24.0,0.,24.0
1980-11-15 14:21:58.890 ,0,0,0.,24.0,0.,24.0,0.,24.0,0.,24.0
1980-11-15 14:22:22.890 ,1,1,0.,24.0,0.,24.0,1.,24.0,0.,24.0
1980-11-15 14:22:46.890 ,1,0,0.,24.0,0.,24.0,0.,24.0,0.,24.0
1980-11-15 14:23:10.890 ,2,1,0.,24.0,0.,24.0,0.,24.0,0.,24.0
1980-11-15 14:23:34.890 ,2,0,0.,24.0,0.,24.0,0.,24.0,0.,24.0
1980-11-15 14:23:58.890 ,3,1,0.,24.0,0.,24.0,0.,24.0,0.,24.0
1980-11-15 14:24:22.890 ,3,0,0.,24.0,0.,24.0,2.,24.0,0.,24.0
1980-11-15 14:24:46.890 ,4,1,0.,24.0,0.,24.0,0.,24.0,0.,24.0
1980-11-15 14:25:10.890 ,4,0,0.,24.0,0.,24.0,2.,24.0,0.,24.0
1980-11-15 14:25:34.890 ,5,1,0.,24.0,0.,24.0,0.,24.0,0.,24.0
1980-11-15 14:25:58.890 ,5,0,1.,24.0,0.,24.0,1.,24.0,0.,24.0
1980-11-15 14:26:22.890 ,6,1,0.,24.0,0.,24.0,1.,24.0,0.,24.0
1980-11-15 14:26:46.890 ,6,0,0.,24.0,0.,24.0,0.,24.0,0.,24.0
1980-11-15 14:27:10.890 ,7,1,1.,24.0,0.,24.0,0.,24.0,0.,24.0
1980-11-15 14:27:34.890 ,7,0,17.,24.0,0.,24.0,1.,24.0,0.,24.0
1980-11-15 14:27:58.890 ,7,1,5.,24.0,0.,24.0,0.,24.0,0.,24.0
1980-11-15 14:28:22.890 ,7,0,9.,24.0,0.,24.0,0.,24.0,0.,24.0
1980-11-15 14:28:46.890 ,6,1,8.,24.0,0.,24.0,1.,24.0,0.,24.0
1980-11-15 14:29:10.890 ,6,0,0.,24.0,0.,24.0,0.,24.0,0.,24.0
1980-11-15 14:29:34.890 ,5,1,0.,24.0,0.,24.0,0.,24.0,0.,24.0
1980-11-15 14:29:58.890 ,5,0,0.,24.0,0.,24.0,0.,24.0,0.,24.0
1980-11-15 14:30:22.890 ,4,1,0.,24.0,0.,24.0,0.,24.0,0.,24.0
1980-11-15 14:30:46.890 ,4,0,0.,24.0,0.,24.0,1.,24.0,0.,24.0
1980-11-15 14:31:10.890 ,3,1,0.,24.0,0.,24.0,0.,24.0,0.,24.0
1980-11-15 14:31:34.890 ,3,0,0.,24.0,0.,24.0,0.,24.0,0.,24.0
1980-11-15 14:31:58.890 ,2,1,0.,24.0,0.,24.0,0.,24.0,0.,24.0
1980-11-15 14:32:22.890 ,2,0,0.,24.0,0.,24.0,0.,24.0,0.,24.0
1980-11-15 14:32:46.890 ,1,1,0.,24.0,0.,24.0,1.,24.0,0.,24.0
1980-11-15 14:33:10.890 ,1,0,0.,24.0,0.,24.0,0.,24.0,0.,24.0
1980-11-15 14:33:34.890 ,0,1,0.,24.0,0.,24.0,1.,24.0,0.,24.0
1980-11-15 14:33:58.890 ,0,0,0.,24.0,0.,24.0,0.,24.0,0.,24.0
1980-11-15 14:34:22.890 ,0,1,1.,24.0,0.,24.0,1.,24.0,0.,24.0
1980-11-15 14:34:46.890 ,0,0,0.,24.0,0.,24.0,1.,24.0,0.,24.0
1980-11-15 14:35:10.890 ,1,1,0.,24.0,0.,24.0,0.,24.0,0.,24.0
1980-11-15 14:35:34.890 ,1,0,0.,24.0,0.,24.0,1.,24.0,0.,24.0
1980-11-15 14:35:58.890 ,2,1,0.,24.0,0.,24.0,0.,24.0,0.,24.0
1980-11-15 14:36:22.890 ,2,0,0.,24.0,0.,24.0,0.,24.0,0.,24.0
1980-11-15 14:36:46.890 ,3,1,0.,24.0,0.,24.0,0.,24.0,0.,24.0
1980-11-15 14:37:10.890 ,3,0,0.,24.0,0.,24.0,0.,24.0,0.,24.0
1980-11-15 14:37:34.890 ,4,1,0.,24.0,0.,24.0,1.,24.0,0.,24.0
1980-11-15 14:37:58.890 ,4,0,0.,24.0,1.,24.0,0.,24.0,0.,24.0
1980-11-15 14:38:22.890 ,5,1,0.,24.0,0.,24.0,0.,24.0,0.,24.0
1980-11-15 14:38:46.890 ,5,0,0.,24.0,0.,24.0,1.,24.0,0.,24.0
1980-11-15 14:39:10.890 ,6,1,0.,24.0,0.,24.0,0.,24.0,0.,24.0
1980-11-15 14:39:34.890 ,6,0,0.,24.0,0.,24.0,1.,24.0,0.,24.0
1980-11-15 14:39:58.890 ,7,1,3.,24.0,0.,24.0,1.,24.0,0.,24.0
1980-11-15 14:40:22.890 ,7,0,12.,24.0,0.,24.0,0.,24.0,0.,24.0
1980-11-15 14:40:46.890 ,7,1,11.,24.0,0.,24.0,1.,24.0,0.,24.0
1980-11-15 14:41:10.890 ,7,0,3.,24.0,0.,24.0,0.,24.0,0.,24.0
1980-11-15 14:41:34.890 ,6,1,3.,24.0,0.,24.0,0.,24.0,0.,24.0